Weather History for Tarboro, NC

Change the Weather History Date:

Saturday, August 9, 2014

  Actual Average Record
Temperature  
Mean Temperature 68 °F -  
Max Temperature 90 °F 89 °F 99 °F (1977)
Min Temperature 65 °F 67 °F 59 °F (1975)
Cooling Degree Days 4    
Growing Degree Days 18 (Base 50)    
Moisture  
Dew Point 66 °F    
Average Humidity 91    
Maximum Humidity 95    
Minimum Humidity 80    
Precipitation  
Precipitation 1.56 in - - ()
Sea Level Pressure  
Sea Level Pressure 30.12 in    
Wind  
Wind Speed 2 mph (ENE)    
Max Wind Speed 12 mph    
Max Gust Speed 17 mph    
Visibility 7 miles    
Events Rain    
Averages and records for this station are not official NWS values.
T = Trace of Precipitation, MM = Missing Value Source: NWS Daily Summary

Daily Weather History Graph

Daily Weather History Graph

Search for Another Location

Airport:

Trip Planner

Search our weather history database for the weather conditions in past years. The results will help you decide how hot, cold, wet, or windy it might be!

Date:

Astronomy

Aug. 09, 2014 Rise Set
Actual Time 6:23 AM EDT 8:06 PM EDT
Civil Twilight 5:56 AM EDT 8:34 PM EDT
Nautical Twilight 5:22 AM EDT 9:07 PM EDT
Astronomical Twilight 4:47 AM EDT 9:42 PM EDT
Moon 7:07 PM EDT (8/9) 5:02 AM EDT (8/9)
Length of Visible Light 14h 38m
Length of Day
13h 42m
Waxing Gibbous, 98% of the Moon is Illuminated
Aug 9
Waxing Gibbous
Aug 10
Full
Aug 17
Last Quarter
Aug 25
New
Sep 2
First Quarter

Hourly Weather History & Observations

Time (EDT) Temp. Dew Point Humidity Pressure Visibility Wind Dir Wind Speed Gust Speed Precip Events Conditions
12:15 AM 72.5 °F 66.7 °F 82% 30.11 in 10.0 mi Calm Calm - N/A   Mostly Cloudy
12:35 AM 72.1 °F 67.1 °F 84% 30.11 in 10.0 mi Calm Calm - N/A   Overcast
12:55 AM 72.1 °F 66.7 °F 83% 30.11 in 10.0 mi Calm Calm - N/A   Overcast
1:35 AM 71.2 °F 67.1 °F 87% 30.11 in 10.0 mi Calm Calm - N/A   Overcast
1:55 AM 71.2 °F 66.7 °F 86% 30.12 in 10.0 mi Calm Calm - N/A   Overcast
2:15 AM 71.2 °F 66.9 °F 86% 30.12 in 10.0 mi Calm Calm - N/A   Overcast
2:35 AM 70.7 °F 67.1 °F 88% 30.12 in 10.0 mi Calm Calm - N/A   Overcast
2:55 AM 70.5 °F 66.9 °F 88% 30.12 in 10.0 mi Calm Calm - N/A   Overcast
3:15 AM 70.3 °F 67.3 °F 90% 30.12 in 10.0 mi Calm Calm - N/A   Overcast
3:35 AM 70.0 °F 67.5 °F 92% 30.11 in 10.0 mi NE 3.5 mph - N/A   Overcast
3:55 AM 69.8 °F 67.3 °F 92% 30.10 in 10.0 mi East 3.5 mph - N/A   Overcast
4:15 AM 69.8 °F 66.6 °F 89% 30.09 in 10.0 mi ENE 5.8 mph - N/A   Overcast
4:35 AM 69.4 °F 64.4 °F 84% 30.08 in 10.0 mi NE 5.8 mph - N/A   Overcast
4:55 AM 68.9 °F 63.0 °F 81% 30.08 in 10.0 mi ENE 5.8 mph - N/A   Overcast
5:15 AM 68.4 °F 61.9 °F 80% 30.09 in 10.0 mi Calm Calm - N/A Rain Light Rain
5:35 AM 67.8 °F 62.4 °F 83% 30.09 in 10.0 mi NE 3.5 mph - N/A Rain Light Rain
5:55 AM 67.1 °F 63.1 °F 87% 30.10 in 10.0 mi ENE 3.5 mph - N/A Rain Light Rain
6:15 AM 66.9 °F 63.9 °F 90% 30.09 in 10.0 mi ENE 6.9 mph - 0.01 in   Light Drizzle
6:35 AM 67.3 °F 64.4 °F 90% 30.10 in 10.0 mi East 3.5 mph - 0.01 in   Light Drizzle
6:55 AM 67.5 °F 64.6 °F 90% 30.11 in 10.0 mi North 3.5 mph - 0.01 in Rain Rain
7:15 AM 67.3 °F 64.6 °F 91% 30.11 in 5.0 mi ENE 4.6 mph - 0.02 in Rain Rain
7:35 AM 66.9 °F 64.4 °F 92% 30.11 in 7.0 mi ENE 6.9 mph - 0.02 in Rain Light Rain
7:55 AM 66.7 °F 64.2 °F 92% 30.12 in 7.0 mi NE 6.9 mph - 0.03 in Rain Rain
8:15 AM 66.7 °F 64.0 °F 91% 30.13 in 7.0 mi NNE 8.1 mph - N/A Rain Rain
8:35 AM 66.6 °F 63.5 °F 90% 30.15 in 2.5 mi Calm Calm - 0.08 in Rain Heavy Rain
8:55 AM 66.0 °F 63.3 °F 91% 30.14 in 1.8 mi NE 5.8 mph - 0.25 in Rain Rain
9:15 AM 65.8 °F 63.3 °F 92% 30.14 in 2.5 mi ESE 3.5 mph - 0.09 in Rain Light Rain
9:35 AM 66.0 °F 63.5 °F 92% 30.15 in 3.0 mi Calm Calm - 0.13 in Rain Heavy Rain
9:55 AM 65.8 °F 63.5 °F 92% 30.15 in 3.0 mi NE 8.1 mph - 0.18 in Rain Heavy Rain
10:15 AM 65.7 °F 63.5 °F 93% 30.14 in 5.0 mi NE 11.5 mph 17.3 mph 0.04 in Rain Rain
10:35 AM 65.5 °F 63.3 °F 93% 30.15 in 2.5 mi NE 10.4 mph 17.3 mph 0.21 in Rain Heavy Rain
10:55 AM 65.8 °F 63.5 °F 92% 30.15 in 2.5 mi East 4.6 mph - 0.29 in Rain Heavy Rain
11:15 AM 66.6 °F 64.4 °F 93% 30.16 in 2.5 mi NNE 3.5 mph - 0.04 in Rain Rain
11:35 AM 67.3 °F 65.1 °F 93% 30.16 in 2.5 mi Calm Calm - 0.12 in Rain Rain
11:55 AM 67.6 °F 65.3 °F 92% 30.16 in 2.5 mi NE 3.5 mph - 0.21 in Rain Heavy Rain
12:15 PM 68.0 °F 66.2 °F 94% 30.16 in 3.0 mi Calm Calm - 0.04 in Rain Rain
12:35 PM 68.5 °F 66.4 °F 93% 30.15 in 2.5 mi Calm Calm - 0.07 in Rain Rain
12:55 PM 69.1 °F 66.7 °F 92% 30.15 in 2.0 mi Calm Calm - 0.13 in Rain Rain
1:15 PM 69.4 °F 66.9 °F 92% 30.14 in 3.0 mi NE 4.6 mph - 0.02 in Rain Light Rain
1:35 PM 69.4 °F 66.9 °F 92% 30.14 in 4.0 mi ENE 3.5 mph - 0.04 in   Drizzle
1:55 PM 69.4 °F 67.1 °F 92% 30.14 in 2.0 mi Calm Calm - 0.11 in Rain Rain
2:15 PM 69.1 °F 66.7 °F 92% 30.14 in 2.5 mi ENE 3.5 mph - 0.06 in Rain Heavy Rain
2:35 PM 68.9 °F 66.4 °F 92% 30.14 in 3.0 mi East 5.8 mph - 0.12 in Rain Rain
2:55 PM 68.9 °F 66.7 °F 93% 30.13 in 2.5 mi East 4.6 mph - 0.16 in Rain Rain
3:15 PM 69.1 °F 66.9 °F 93% 30.13 in 4.0 mi Calm Calm - 0.01 in Rain Light Rain
3:35 PM 68.9 °F 66.4 °F 92% 30.12 in 7.0 mi East 5.8 mph - 0.03 in Rain Light Rain
3:55 PM 68.7 °F 65.8 °F 90% 30.12 in 5.0 mi Calm Calm - 0.04 in Rain Rain
4:15 PM 68.5 °F 66.2 °F 92% 30.11 in 3.0 mi Calm Calm - 0.03 in Rain Rain
4:35 PM 68.4 °F 66.0 °F 92% 30.11 in 3.0 mi ESE 4.6 mph - 0.07 in Rain Rain
4:55 PM 68.4 °F 66.2 °F 93% 30.11 in 5.0 mi Calm Calm - 0.08 in   Drizzle
5:15 PM 68.7 °F 66.4 °F 92% 30.11 in 5.0 mi Calm Calm - 0.01 in Rain Rain
5:35 PM 68.9 °F 66.9 °F 93% 30.10 in 4.0 mi ESE 4.6 mph - 0.02 in Rain Rain
5:55 PM 68.9 °F 66.7 °F 93% 30.09 in 5.0 mi ESE 6.9 mph - 0.03 in Rain Light Rain
6:15 PM 68.5 °F 65.7 °F 90% 30.09 in 10.0 mi East 5.8 mph - N/A Rain Light Rain
6:35 PM 68.0 °F 65.3 °F 91% 30.09 in 10.0 mi Calm Calm - N/A   Overcast
6:55 PM 68.0 °F 65.8 °F 93% 30.09 in 10.0 mi Calm Calm - N/A   Overcast
7:15 PM 68.4 °F 66.4 °F 93% 30.09 in 10.0 mi Calm Calm - N/A   Overcast
7:35 PM 68.5 °F 66.4 °F 93% 30.09 in 7.0 mi Calm Calm - N/A   Overcast
7:55 PM 68.5 °F 66.7 °F 94% 30.09 in 7.0 mi Calm Calm - N/A   Overcast
8:15 PM 68.5 °F 66.7 °F 94% 30.10 in 10.0 mi Calm Calm - N/A   Overcast
8:35 PM 68.5 °F 66.4 °F 93% 30.11 in 7.0 mi Calm Calm - N/A   Light Drizzle
8:55 PM 68.4 °F 66.4 °F 93% 30.12 in 7.0 mi Calm Calm - N/A   Overcast
9:15 PM 68.2 °F 66.2 °F 93% 30.12 in 7.0 mi Calm Calm - 0.01 in   Light Drizzle
9:35 PM 68.0 °F 66.2 °F 94% 30.13 in 7.0 mi Calm Calm - 0.01 in Rain Light Rain
9:55 PM 67.8 °F 66.0 °F 94% 30.14 in 5.0 mi Calm Calm - 0.03 in Rain Rain
10:15 PM 67.6 °F 65.8 °F 94% 30.13 in 7.0 mi North 5.8 mph - 0.01 in Rain Light Rain
10:35 PM 67.5 °F 65.8 °F 95% 30.13 in 7.0 mi NE 3.5 mph - 0.01 in   Light Drizzle
10:55 PM 67.6 °F 66.0 °F 95% 30.13 in 10.0 mi Calm Calm - 0.01 in   Overcast
11:15 PM 67.6 °F 65.8 °F 94% 30.12 in 10.0 mi Calm Calm - N/A   Overcast